星链-31226 (STARLINK-31226 )

导读

STARLINK-31226是美国SpaceX星链星座的组网卫星,于2024年1月29日发射升空,归属星链互联网星座项目。该卫星承担低轨卫星互联网星座的组网任务,可为全球多地提供高速低延迟的卫星互联网接入服务,也进一步扩充了星链星座的在轨卫星规模,增强星座覆盖能力。

基本信息
目录编号:
58858
目录名称:
STARLINK-31226
国际标识:
2024-019F
轨道中心:
EARTH
卫星名称:
星链-31226
卫星全名:
星链-31226 (STARLINK-31226 )
卫星状态:
在轨 (已飞行949 天)
发射日期:
2024-01-29 UTC
国别 :
美国 (US)
星等 :
--
轨道信息
数据来源 国际轨道数据 AOE轨道数据
星历时间 2026-09-04T13:06:49+0800
8小时前
查看轨道信息
2026-09-03T08:00:00+0800
1天前
查看轨道信息
半长轴 6861.155km 6861.223km
偏心率 0.0001366 0.0000232
轨道倾角 43.000° 43.001°
近地点辐角 258.749° 339.124°
升交点赤经 320.858° 327.710°
平近点角 101.320° 182.081°
近地点 482.08km 482.926km
远地点 483.956km 483.246km
周期 94.266分钟 94.268分钟
每日圈数 15.275907 15.275678
详细信息
固有亮度:
5
最大亮度:
0.3
卫星平台:
Starlink v2.0 mini
覆盖范围:
全球
运营商:
太空探索技术公司
运营商所在国:
美国
制造商(研发单位):
太空探索技术公司
制造商所在国:
美国
使用方式:
暂无
卫星简介
星链(Starlink)计划是由太空探索技术公司(SpaceX)提出的一个巨型低轨卫星互联网星座项目,计划在2019年至2024年间在太空搭建由约1.2万颗卫星组成的“星链”网络,其中1584颗将部署在地球上空550千米处的近地轨道,并从2020年开始工作。该卫星仍在工作。
2D轨道图
3D轨道图
轨道高度分析图
轨道倾角分析图
轨道综合分析图
查看轨道综合分析图
交会数据列表
事件ID 空间交会对象 最接近时刻(TCA) 交会距离 交会风险概率(CRP) 交会风险指数(CRI) 操作
CDM_260905-151305-782505-885821
2026-09-05T
15:13:07+0000
2.322 km
极远距离
5.579042E-7 极低风险 0.3